www.pogodaiklimat.ru

Погода и климат >> Архив погоды >> Пакистан >> Сиби


ПОГОДА в Сиби

  • Прогноз погоды в Сиби
  • Монитор погоды в Сиби

АРХИВ ПОГОДЫ в Сиби

Время (UTC), дата Ветер
(напр.,м/с)
 
Видим.   Явления Облачность Т
(С)
Тd
(С)
f
(%)
Тe
(С)
Тes
(С)
Комфортность P
(гПа)
Po
(гПа)
Тmin
(С)
Tmax
(С)
R
(мм)
R24
(мм)
S
(см)
06 16.05 ЮЗ 1 10 км 5/5 1200 м
[Sc]
+32.2 +16.2 38 +35 +46 очень
душно
1008.2 1000.0
09 16.05 ЮЗ 2 10 км 5/5 1200 м
[Sc]
+34.4 +16.6 35 +37 +47 очень
душно
1005.7 990.8
12 16.05 СЗ 2 10 км 8/5 1200 м
[Sc]
+31.7 +13.4 33 +33 +34 жарко 1005.7 990.7 +35.1
15 16.05 СЗ 1 4000 м 5/5 1200 м
[Sc]
+29.4 +14.9 41 +32 +32 душно 1006.4 1000.0
18 16.05 штиль 0 4000 м 5/5 1200 м
[Sc]
+29.4 +14.9 41 +32 +32 душно 1007.1 1000.0
21 16.05 штиль 0 4000 м 5/5 1200 м
[Sc]
+28.3 +16.6 49 +32 +32 душно 1006.5 991.3
00 17.05 штиль 0 4000 м 5/5 1200 м
[Sc]
+26.7 +17.0 55 +30 +30 душно 1005.6 990.6
03 17.05 ЮЗ 2 10 км ясно +28.3 +18.5 55 +33 +38 очень
душно
1007.8 992.6 +26.0
06 17.05 штиль 0 10 км ясно +31.7 +16.6 40 +35 +61 опасность
солнечного
удара
1008.0 1000.0
09 17.05 ЮЗ 1 10 км ясно +35.0 +18.3 37 +39 +61 опасность
солнечного
удара
1005.7 1000.0
12 17.05 штиль 0 10 км 5/5 1200 м
[Sc]
+35.0 +18.3 37 +39 +42 очень
душно
1003.2 988.3 +36.1
15 17.05 штиль 0 4000 м 5/5 1200 м
[Sc]
+33.3 +19.2 43 +38 +38 очень
душно
1003.5 1000.0
18 17.05 штиль 0 4000 м ясно +31.7 +14.5 35 +33 +33 жарко 1004.7 1000.0
21 17.05 штиль 0 4000 м ясно +30.6 +16.2 42 +34 +34 очень
душно
1004.6 1000.0
00 18.05 штиль 0 4000 м ясно +27.8 +18.8 58 +33 +33 очень
душно
1004.5 989.6
03 18.05 штиль 0 10 км 5/5 1200 м
[Sc]
+30.6 +18.2 48 +35 +39 очень
душно
1007.1 992.0 +18.3
06 18.05 штиль 0 10 км 5/5 1200 м
[Sc]
+35.0 +18.3 37 +39 +52 опасность
солнечного
удара
1007.1 992.2
09 18.05 СЗ 1 10 км 5/5 1200 м
[Sc]
+38.3 +16.1 27 +40 +51 опасность
солнечного
удара
1004.4 1000.0
12 18.05 штиль 0 10 км ясно +39.4 +12.9 21 +39 +46 очень
жарко
1002.8 988.2 +40.1
15 18.05 штиль 0 4000 м ясно +35.6 +14.8 29 +37 +37 душно 1003.5 1000.0
18 18.05 штиль 0 4000 м ясно +31.7 +15.5 38 +34 +34 душно 1004.5 1000.0
21 18.05 штиль 0 4000 м ясно +30.6 +15.2 39 +33 +33 душно 1004.3 1000.0
00 19.05 штиль 0 4000 м ясно +27.2 +16.6 52 +31 +31 душно 1004.1 989.1
03 19.05 штиль 0 10 км ясно +32.2 +16.2 38 +35 +42 очень
душно
1005.1 990.4 +26.1
06 19.05 штиль 0 10 км ясно +37.2 +14.9 27 +38 +64 опасность
солнечного
удара
1005.5 990.8
09 19.05 СВ 1 10 км 4/4 1200 м
[Sc]
+39.4 +14.2 23 +40 +53 опасность
солнечного
удара
1003.7 1000.0
12 19.05 СЗ 3 10 км 5/5 1200 м
[Sc]
+36.1 +13.3 26 +37 +39 душно 1003.7 988.9 +41.0
15 19.05 штиль 0 4000 м ясно +33.9 +13.7 30 +35 +35 очень
жарко
1003.8 1000.0
18 19.05 штиль 0 4000 м ясно +31.1 +14.8 37 +33 +33 душно 1005.3 1000.0
21 19.05 штиль 0 4000 м ясно +29.2 +16.3 46 +33 +33 очень
душно
1004.8 1000.0
00 20.05 штиль 0 4000 м 5/5 1200 м
[Sc]
+29.4 +16.9 47 +33 +33 душно 1004.9 990.0
03 20.05 штиль 0 10 км ясно +33.3 +16.3 36 +36 +43 очень
душно
1007.3 992.3 +27.5
06 20.05 ЮЗ 1 10 км ясно +37.2 +13.7 25 +38 +60 опасность
солнечного
удара
1008.1 1000.0
09 20.05 штиль 0 10 км ясно +39.4 +14.2 23 +40 +66 опасность
солнечного
удара
1006.4 1000.0
12 20.05 СЗ 2 10 км 5/5 1200 м
[Sc]
+39.4 +14.2 23 +40 +43 очень
душно
1004.3 989.7 +40.0
15 20.05 штиль 0 4000 м 5/5 1200 м
[Sc]
+37.2 +14.9 27 +38 +38 душно 1004.7 1000.0
18 20.05 штиль 0 4000 м 5/5 1200 м
[Sc]
+34.4 +16.6 35 +37 +37 очень
душно
1005.9 1000.0
21 20.05 штиль 0 4000 м ясно +32.2 +16.2 38 +35 +35 очень
душно
1005.7 1000.0
00 21.05 штиль 0 4000 м ясно +30.0 +18.5 50 +35 +35 очень
душно
1006.0 990.9
03 21.05 штиль 0 10 км 5/5 1200 м
[Sc]
+32.2 +17.2 41 +36 +39 очень
душно
1006.4 991.4 +29.1
06 21.05 ЮЗ 1 10 км 5/5 1200 м
[Sc]
+37.8 +16.4 28 +40 +51 опасность
солнечного
удара
1006.6 1000.0
09 21.05 ЮЗ 1 10 км 5/5 1200 м
[Sc]
+40.0 +15.0 23 +41 +52 опасность
перегрева
1004.4 1000.0
12 21.05 штиль 0 10 км ясно +40.0 +15.0 23 +41 +48 опасность
перегрева
1002.6 988.1 +41.1
15 21.05 СВ 1 4000 м 5/5 1200 м
[Sc]
+34.4 +16.6 35 +37 +37 очень
душно
1004.7 1000.0
18 21.05 СЗ 2 4000 м 8/8 1200 м
[Sc]
+32.2 +16.2 38 +35 +35 очень
душно
1006.7 991.7
21 21.05 штиль 0 4000 м 5/5 1200 м
[Sc]
+31.1 +16.9 43 +35 +35 очень
душно
1006.4 1000.0
00 22.05 штиль 0 4000 м 5/5 1200 м
[Sc]
+29.4 +18.8 53 +35 +35 очень
душно
1003.9 989.0
03 22.05 штиль 0 10 км 5/5 1200 м
[Sc]
+31.7 +17.5 43 +36 +39 очень
душно
1004.5 989.8 +28.1
06 22.05 штиль 0 10 км ясно +37.2 +14.9 27 +38 +64 опасность
солнечного
удара
1004.4 1000.0
09 22.05 штиль 0 10 км ясно +38.9 +14.6 24 +40 +65 опасность
солнечного
удара
1001.9 1000.0
12 22.05 штиль 0 10 км 5/5 1200 м
[Sc]
+40.6 +14.6 22 +41 +45 опасность
перегрева
999.3 984.8 +40.5
15 22.05 штиль 0 4000 м 8/8 1200 м
[Sc]
+34.4 +17.6 37 +38 +38 очень
душно
1001.6 1000.0
18 22.05 штиль 0 4000 м 5/5 1200 м
[Sc]
+31.7 +16.6 40 +35 +35 очень
душно
1003.0 1000.0
21 22.05 штиль 0 4000 м 5/5 1200 м
[Sc]
+30.6 +16.2 42 +34 +34 очень
душно
1002.6 1000.0
00 23.05 штиль 0 4000 м 5/5 300 м
[Sc]
+29.4 +17.9 50 +34 +34 очень
душно
1001.7 986.8
03 23.05 штиль 0 10 км ясно +32.2 +18.2 43 +37 +44 очень
душно
1003.3 988.6 +28.1

 

Местоположение метеостанции Сиби (Пакистан): широта 29.55 долгота 67.88 высота над уровнем моря 134 м.

В архиве по умолчанию представлена погода в Сиби за последнюю неделю. Архивные данные за месяц целиком и за предыдущие месяцы, начиная с января 2011 года, Вы можете получить, выбрав интересующий диапазон дат из раскрывающегося списка и нажав кнопку "Ввод!".


*Определитесь, кто Вы:
робот инопланетянин человек

Внимание! Время в таблицах - всемирное. Для получения местного времени необходимо прибавить поправку, которая равна 5 ч.

Смотрите также архив погоды в соседних городах и на ближайших метеорологических станциях:

Погода в Кветта Шейх Манда (Пакистан) (122 км)
Погода в Кветте (Пакистан) (124 км)
Погода в Калате (Пакистан) (139 км)
Погода в Джейкобабаде (Пакистан) (150 км)
Погода в Бархане (Пакистан) (181 км)
Погода в Суккуре (Пакистан) (222 км)
Погода в Ларкане (Пакистан) (224 км)
Погода в Хуздаре (Пакистан) (227 км)
Погода в Рохри (Пакистан) (232 км)
Погода в Мохенджо-Даро (Пакистан) (249 км)

Пояснения к столбцам:

Ветер - указаны скорость ветра в м/с - средняя за 10 мин, порывы в срок и между сроками (в фигурных скобках) и направление, откуда дует ветер: С - северный, СВ - северо-восточный, В - восточный, ЮВ - юго-восточный, Ю - южный, ЮЗ - юго-западный, З - западный, СЗ - северо-западный.
Видимость - горизонтальная дальность видимости в метрах или километрах. При видимости от 1 до 10 км при отсутствии осадков обычно наблюдается дымка, при ухудшении видимости до 1 км и менее - туман. В сухую погоду видимость может ухудшаться дымом, пылью или мглою.
Явления - указаны атмосферные явления, наблюдавшиеся в срок или в последний час перед сроком; фигурными скобками обозначены явления, наблюдавшиеся между сроками (за 1-3 часа до срока); квадратными скобками обозначены град или гололедные отложения с указанием их диаметра в мм.
Облачность - указаны через наклонную черту общая и нижняя облачность в баллах и высота нижней границы облаков в метрах; квадратными скобками обозначены формы облаков: Ci - перистые, Cs - перисто-слоистые, Cc - перисто-кучевые, Ac - высококучевые, As - высокослоистые, Sc - слоисто-кучевые, Ns - слоисто-дождевые, Cu - кучевые, Cb - кучево-дождевые. Подробнее классификацию облаков см. в Атласе облаков (PDF).
T - Температура воздуха - температура, измеренная на высоте 2 м над землей.
Td - Температура точки росы - температура, при понижении до которой содержащийся в воздухе водяной пар достигнет насыщения.
f - Относительная влажность воздуха - влажноcть воздуха, измеренная на высоте 2 м над землей.
Te - Эффективная температура - температура, которую ощущает одетый по сезону человек в тени. Характеристика душности погоды. При расчете учитывается влияние влажности воздуха и скорости ветра на теплоощущения человека.
Tes - Эффективная температура на солнце - температура, которую ощущает человек, с поправкой на солнечный нагрев. Характеристика знойности погоды. Зависит от высоты солнца над горизонтом, облачности и скорости ветра. Ночью, в пасмурную погоду, а также при ветре 12 м/с и более поправка равна нулю.
P - Атмосферное давление - приведенное к уровню моря атмосферное давление.
Po - Атмосферное давление - измеренное на уровне метеостанции атмосферное давление.
Tmin - Минимальная температура - минимум температуры воздуха на высоте 2 м над землей.
Tmax - Максимальная температура - максимум температуры воздуха на высоте 2 м над землей.
R - Количество осадков - Количество выпавших осадков за период времени, мм. При наведении курсора мыши на число - период времени, за который выпало указанное количество осадков.
R24 - Количество осадков - Количество выпавших осадков за 24 часа, мм.
S - Снежный покров - Высота снежного покрова, см. При наведении курсора мыши на число - состояние снежного покрова и степень покрытия местности в баллах.